Location: Home
(42.5358°N, 72.7383°W)
Time: 17:35:20
(UTC-05:00)

N. Korean satellite - Pass Details

Date: 28 October 2021
Orbit: 446 x 495 km, 97.3° (Epoch: 07 December)

Event Time Altitude Azimuth Distance (km) Brightness Sun altitude
Rises 05:57:55 0° 15° (NNE) 2,587 10.4 -15.7°
Reaches altitude 10° 06:00:02 10° 18° (NNE) 1,695 9.5 -15.3°
Maximum altitude 06:03:40 64° 101° (E) 544 7.0 -14.6°
Drops below altitude 10° 06:07:12 10° 183° (S) 1,658 9.3 -13.9°
Sets 06:09:15 0° 187° (S) 2,524 10.2 -13.6°
